Regional Weather Roundup
Issued by NWS

Home | Current Version | Previous Version | Text Only | Print | Product List | Glossary Off
Versions: 1 2 3 4 5 6 7 8 9 10 11 12 13 14 15 16 17 18 19 20 21 22 23 24 25 26 27 28 29 30 31 32 33 34 35 36 37 38 39 40 41 42 43 44 45 46 47 48 49 50

000
ASUS43 KLOT 051401
RWRIL

ILLINOIS REGIONAL WEATHER ROUNDUP
NATIONAL WEATHER SERVICE CHICAGO/ROMEOVILLE IL
900 AM CDT SAT SEP 05 2015

NOTE: "FAIR" INDICATES FEW OR NO CLOUDS BELOW 12,000 FEET WITH NO
SIGNIFICANT WEATHER AND/OR OBSTRUCTIONS TO VISIBILITY.

* THESE STATIONS ARE NOT UNDER NWS QUALITY CONTROL. THEY ALSO MAY NOT
  REPORT WEATHER SUCH AS PRECIPITATION OR FOG.

ILZ001-002-007-009-015-016-024-051500-
NORTHWEST ILLINOIS

CITY           SKY/WX    TMP DP  RH WIND       PRES   REMARKS
MOLINE         MOSUNNY   79  70  74 S6        30.07R HX  82
STERLING*      CLOUDY    75  72  88 CALM      30.07R
$$

ILZ003-004-008-010-011-017-018-051500-
NORTH CENTRAL ILLINOIS

CITY           SKY/WX    TMP DP  RH WIND       PRES   REMARKS
ROCKFORD       CLOUDY    75  69  81 S3        30.10S
$$

ILZ005-006-012>014-019>023-051500-
NORTHEAST ILLINOIS

CITY           SKY/WX    TMP DP  RH WIND       PRES   REMARKS
CHICAGO-OHARE  PTSUNNY   73  66  78 S9        30.09S
CHICAGO-MIDWAY PTSUNNY   74  66  76 SE3       30.10R THUNDER
AURORA         MOSUNNY   75  68  78 S7        30.11R
WAUKEGAN       PTSUNNY   70  70 100 CALM      30.09S FOG
DUPAGE AIRPORT MOSUNNY   75  67  76 S12       30.10S
WHEELING       NOT AVBL
NORTHERLY ISL    N/A     73  63  70 S1          N/A
$$

LMZ740>746-051500-
SOUTHERN LAKE MICHIGAN

STATION/POSITION SKY/WX   TEMP    WIND        PRES    VSBY  WAVE
                          AIR SEA DIR/SP/G                  HT/PER
                          (F)     (DEG/KT/KT) (MB)    (MI)  (FT/S)
SOUTHERN BUOY              71 71  160/ 12/ 14 1018.2F         0
WILMETTE HARBOR            72 71   30/  4/  4   N/A           1
HARRISON CRIB              75     210/ 16/ 19   N/A
BURNHAM HARBOR             74     230/  7/ 18   N/A
CALUMET HARBOR             72     200/  7/  8   N/A
BURNS HARBOR               73     190/ 10/ 12 1020.0R
MICHIGAN CITY              72     180/ 10/ 12   N/A
MICHIGAN CITY 6N           73 73  220/ 10/ 12   N/A           1
ST. JOSEPH                 73 73  250/ 12/ 14   N/A           1/ 2
$$

ILZ025>027-034>036-040-047-049-050-058-095>099-051500-
WEST-CENTRAL ILLINOIS

CITY           SKY/WX    TMP DP  RH WIND       PRES   REMARKS
QUINCY         SUNNY     80  69  69 S8        30.09S HX  83
$$

ILZ028>032-037-038-041>044-048-051>054-059>061-051500-
CENTRAL ILLINOIS

CITY           SKY/WX    TMP DP  RH WIND       PRES   REMARKS
DECATUR        MOSUNNY   78  67  68 S5        30.13R HX  80
PEORIA         PTSUNNY   77  67  71 S5        30.11R
SPRINGFIELD    SUNNY     80  69  69 SE5       30.12R HX  83
TAYLORVILLE    NOT AVBL
$$

ILZ033-039-045-046-055>057-062-063-051500-
EAST-CENTRAL ILLINOIS

CITY           SKY/WX    TMP DP  RH WIND       PRES   REMARKS
CHAMPAIGN      MOSUNNY   79  70  74 VRB3      30.14R HX  82
MATTOON        SUNNY     77  68  73 S7        30.13R
$$

ILZ079-100>102-051500-
SOUTHWEST ILLINOIS

CITY           SKY/WX    TMP DP  RH WIND       PRES   REMARKS
ALTON          SUNNY     75  72  88 CALM      30.11S
BELLEVILLE     SUNNY     78  74  88 NE5       30.10R HX  81
CAHOKIA*       SUNNY     80  70  71 CALM      30.10S HX  83
$$

ILZ064>066-069>071-074>076-080>082-084>086-088>090-092>094-051500-
SOUTH-CENTRAL ILLINOIS

CITY           SKY/WX    TMP DP  RH WIND       PRES   REMARKS
CARBONDALE     SUNNY     77  70  79 E3        30.11R
MARION         PTSUNNY   79  72  78 CALM      30.12R HX  82
MT. VERNON     SUNNY     77  68  73 CALM      30.13S
$$

ILZ067-068-072-073-078-083-087-091-051500-
SOUTHEAST ILLINOIS

CITY           SKY/WX    TMP DP  RH WIND       PRES   REMARKS
LAWRENCEVILLE  SUNNY     78  68  71 E3        30.13S HX  80
$$

ABBREVIATIONS USED IN REMARKS
   TC - TEMPERATURE IN CELSIUS
  WCI - WIND CHILL INDEX
   HX - HEAT INDEX
  VSB - VISIBILITY
$$




USA.gov is the U.S. government's official web portal to all federal, state and local government web resources and services.